Regional Weather Roundup
Issued by NWS

Home | Current Version | Previous Version | Text Only | Print | Product List | Glossary Off
Versions: 1 2 3 4 5 6 7 8 9 10 11 12 13 14 15 16 17 18 19 20 21 22 23 24 25 26 27

000
ASUS45 KPSR 091810
RWRAZ

ARIZONA HOURLY REGIONAL WEATHER ROUNDUP
NATIONAL WEATHER SERVICE PHOENIX AZ
1100 AM MST FRI DEC 09 2016

NOTE: FAIR INDICATES FEW OR NO CLOUDS BELOW 12,000 FEET WITH NO
SIGNIFICANT WEATHER AND/OR OBSTRUCTIONS TO VISIBILITY.

AZZ001>003-036-091900-
NORTHWEST ARIZONA

CITY           SKY/WX    TMP DP  RH WIND       PRES   REMARKS
BULLHEAD CITY  CLOUDY    59  14  17 N15       30.30S
KINGMAN        CLOUDY    53  23  31 CALM      30.30S
6HR MIN TEMP:  44; 6HR MAX TEMP:  53;

$$

AZZ004>008-015-016-018-091900-
NORTH CENTRAL ARIZONA

CITY           SKY/WX    TMP DP  RH WIND       PRES   REMARKS
GRAND CANYON   CLOUDY    40  35  83 SW3       30.34R
6HR MIN TEMP:  28; 6HR MAX TEMP:  40;

WILLIAMS       PTSUNNY   46  34  61 SE5       30.34R
PRESCOTT       SUNNY     49  34  56 N3        30.33R
6HR MIN TEMP:  28; 6HR MAX TEMP:  49;

FLAGSTAFF      PTSUNNY   43  33  68 SW5       30.34S
6HR MIN TEMP:  23; 6HR MAX TEMP:  43;

PAYSON         SUNNY     48  32  53 CALM      30.36F
PAGE           PTSUNNY   41  10  28 N5        30.34S
6HR MIN TEMP:  29; 6HR MAX TEMP:  41;

$$

AZZ009>014-017-091900-
NORTHEAST ARIZONA

CITY           SKY/WX    TMP DP  RH WIND       PRES   REMARKS
WINSLOW        MOSUNNY   45  29  53 E6        30.34S
6HR MIN TEMP:  21; 6HR MAX TEMP:  45;

SAINT JOHNS    SUNNY     46  26  45 CALM      30.33F
6HR MIN TEMP:  18; 6HR MAX TEMP:  46;

WINDOW ROCK    MOSUNNY   45  27  49 CALM      30.35S
6HR MIN TEMP:  17; 6HR MAX TEMP:  45;

SHOW LOW       SUNNY     50  25  37 S10       30.35F
$$

AZZ023-091900-
GREATER PHOENIX AREA

CITY           SKY/WX    TMP DP  RH WIND       PRES   REMARKS
PHOENIX        MOSUNNY   60  36  40 E10       30.25F
6HR MIN TEMP:  47; 6HR MAX TEMP:  60;

BUCKEYE        SUNNY     61  41  48 E10       30.28S
GLENDALE       MOSUNNY   59  39  47 CALM      30.28S
LUKE AFB       SUNNY     60  40  47 CALM      30.25F
6HR MIN TEMP:  44; 6HR MAX TEMP:  60;

DEER VALLEY    SUNNY     62  39  42 S6        30.25S
6HR MIN TEMP:  45; 6HR MAX TEMP:  62;

SCOTTSDALE     SUNNY     61  38  42 SW3       30.27S
6HR MIN TEMP:  44; 6HR MAX TEMP:  62;

MESA-FALCON    MOSUNNY  N/A N/A N/A VRB6      30.24S
MESA-GATEWAY   SUNNY     57  39  51 CALM      30.27F
$$

AZZ027-028-091900-
SOUTHWEST MARICOPA COUNTY AND PINAL COUNTY

CITY           SKY/WX    TMP DP  RH WIND       PRES   REMARKS
CASA GRANDE    NOT AVBL
GILA BEND      SUNNY     60  39  45 N9        30.24F
6HR MIN TEMP:  43; 6HR MAX TEMP:  60;

$$

AZZ503-504-507>509-091900-
SOUTHEAST ARIZONA

CITY           SKY/WX    TMP DP  RH WIND       PRES   REMARKS
TUCSON         SUNNY     59  35  40 CALM      30.27F
6HR MIN TEMP:  41; 6HR MAX TEMP:  59;

DAVIS-MONTHAN  SUNNY     60  34  38 VRB2      30.26S
6HR MIN TEMP:  41; 6HR MAX TEMP:  60;

RYAN FIELD     SUNNY     59  37  44 E9        30.28S
NOGALES        SUNNY     61  32  33 CALM      30.26F
6HR MIN TEMP:  33; 6HR MAX TEMP:  61;

SIERRA VISTA   SUNNY     58  33  39 E6        30.32F
6HR MIN TEMP:  35; 6HR MAX TEMP:  58;

DOUGLAS        SUNNY     52  34  50 SW3       30.33F
6HR MIN TEMP:  27; 6HR MAX TEMP:  52;

SAFFORD        SUNNY     49  31  49 SE8       30.36F
6HR MIN TEMP:  36; 6HR MAX TEMP:  49;

$$

AZZ020-021-025-026-031-091900-
SOUTHWEST ARIZONA

CITY           SKY/WX    TMP DP  RH WIND       PRES   REMARKS
YUMA           PTSUNNY   64  22  20 N8        30.26R
6HR MIN TEMP:  49; 6HR MAX TEMP:  64;

$$

CAZ031-033-041-043-047-048-061-091900-
SOUTHERN CALIFORNIA

CITY           SKY/WX    TMP DP  RH WIND       PRES   REMARKS
DOWNTOWN L.A.  PTSUNNY   58  47  66 VRB3      30.27R
6HR MIN TEMP:  51; 6HR MAX TEMP:  58;

L.A. AIRPORT   PTSUNNY   59  50  72 SE6       30.28R
6HR MIN TEMP:  53; 6HR MAX TEMP:  59;

SAN DIEGO      PTSUNNY   62  50  64 W5        30.29S
6HR MIN TEMP:  51; 6HR MAX TEMP:  62;

BURBANK        MOSUNNY   56  46  69 E5        30.26S
6HR MIN TEMP:  48; 6HR MAX TEMP:  57;

ONTARIO        CLOUDY    57  43  59 CALM      30.28R HAZE
6HR MIN TEMP:  46; 6HR MAX TEMP:  57;

RIVERSIDE      CLOUDY    58  46  64 CALM      30.28R
6HR MIN TEMP:  44; 6HR MAX TEMP:  58;

PALM SPRINGS   MOSUNNY   62  37  39 CALM      30.28S
6HR MIN TEMP:  45; 6HR MAX TEMP:  62;

EL CENTRO NAS  PTSUNNY   63  26  24 N5        30.28S
6HR MIN TEMP:  40; 6HR MAX TEMP:  63;

IMPERIAL       MOSUNNY   62  30  29 N5        30.26S
6HR MIN TEMP:  42; 6HR MAX TEMP:  62;

BLYTHE         MOSUNNY   58  13  17 N5        30.29R
6HR MIN TEMP:  44; 6HR MAX TEMP:  58;

NEEDLES        CLOUDY    60  19  20 N8        30.30S
6HR MIN TEMP:  52; 6HR MAX TEMP:  60;

$$

NVZ020-UTZ003-091900-
SOUTHERN NEVADA-UTAH

CITY           SKY/WX    TMP DP  RH WIND       PRES   REMARKS
LAS VEGAS      CLOUDY    52  10  18 E3        30.31S
6HR MIN TEMP:  46; 6HR MAX TEMP:  52;

SALT LAKE CITY CLOUDY    34  28  79 NE5       30.22R WCI  30
6HR MIN TEMP:  30; 6HR MAX TEMP:  39; 6HR PCP:  0.01;

$$

NMZ009-TXZ055-091900-
NEW MEXICO-WEST TEXAS

CITY           SKY/WX    TMP DP  RH WIND       PRES   REMARKS
ALBUQUERQUE    MOSUNNY   35  26  69 S7        30.38F WCI  29
6HR MIN TEMP:  25; 6HR MAX TEMP:  35;

EL PASO        CLOUDY    37  27  67 NE3       30.44F
6HR MIN TEMP:  32; 6HR MAX TEMP:  37;

$$


........................KEY........................
SKY/WX - SKY CONDITION/WEATHER
TMP    - TEMPERATURE IN FAHRENHEIT
DP     - DEW POINT IN FAHRENHEIT
RH     - RELATIVE HUMIDITY IN PERCENT
WIND   - DIRECTION AND SPEED IN MILES PER HOUR (MPH)
VRB    - VARIABLE WIND DIRECTION
PRES   - MEAN SEA LEVEL PRESSURE IN INCHES OF MERCURY
         F - FALLING PRESSURE   R - RISING PRESSURE
         S - STEADY PRESSURE
VSB    - VISIBILITY IN MILES
HX     - HEAT INDEX IN FAHRENHEIT
WCI    - WIND CHILL INDEX IN FAHRENHEIT
TC     - TEMPERATURE IN CELSIUS WHICH IS ALSO KNOWN AS
         TEMPERATURE IN CENTIGRADE
AFB    - AIR FORCE BASE
         LUKE AFB IS LUKE AIR FORCE BASE
         DAVIS-MONTHAN IS DAVIS-MONTHAN AIR FORCE BASE
NAS    - NAVAL AIR STATION
         EL CENTRO NAS IS EL CENTRO NAVAL AIR STATION
N/A    - NOT AVAILABLE





USA.gov is the U.S. government's official web portal to all federal, state and local government web resources and services.